Faa'a International Airport

Jump to: basic info | weather | frequencies | runways | comments

Related pages: nearby airports | nearby navaids | notams | map

Basic information (top)

Codes: PPT NTAA
Location: lon -17.553699, lat -149.606995, elev 5 ft / 2 m msl
Status: medium_airport
Scheduled airline service: yes
Links: Wikipedia Mobile

Weather (top)

Current conditions (rec'd 2014/12/22 03:30Z):

NTAA 220330Z 07006KT 030V110 9999 FEW020 BKN050 BKN100 26/23 Q1005 TEMPO 33015G25KT 1000 RA FEW010 BKN035 OVC090

Airport forecast (rec'd 2014/12/22 00:00Z):

TAF NTAA 212300Z 2200/2306 04012KT 9999 FEW020 BKN040 BKN100 
      TEMPO 2200/2306 33015G25KT 2000 RA FEW010 BKN035 OVC090 PROB30 
      TEMPO 2200/2306 30020G35KT TSRA SCT010 BKN013CB

Frequencies (top)

Verify before use: may be inaccurate or out of date.

APP: 118.1 MHz (APP)
ATIS: 128.8 MHz (ATIS)
GND: 121.9 MHz (GND)
TWR: 118.1 MHz (TWR)

Runways (top)

04/22: 11,360 x 148 ft (3,463 x 45 m) — paved — lighted — threshold 04 displaced 1,120 ft (341 m) — threshold 22 displaced 390 ft (119 m)

Latest comments (top)

Fa'a'a international Airport: a great hot country [read]

More... (top)

See also NOTAMs and nearby airports and navaids, or visit the Faa'a International Airport page at the main OurAirports website..